Find Starlink 31896

NORAD ID: 59851 Int'l Des: 2024-097 Owner: SPXS Country: US Constellation: starlink operational
LEOCIRCULAR

Current View

Loading 3D Globe...

About Starlink 31896

Starlink 31896 (NORAD 59851) is a starlink constellation satellite (v2 mini) launched May 23, 2024 by SPXS of US. It operates in LEO, CIRCULAR orbit with a mass of 730.00 kg.

Upcoming Passes

Passes for default location (London). Set your location on the main map for personalized predictions.

Altitude History

Loading altitude history...

Two-Line Element Set

1 59851U 24097S 26262.34233755 -.00001539 00000-0 -46403-4 0 9991
2 59851 43.0026 260.6981 0001630 267.6506 92.4159 15.27588824131532
Epoch: Sep 19, 2026 • Age: 30 hours

Current Status

Altitude 483.1 km
Apogee / Perigee N/A
Velocity 7.63 km/s
Sub-Earth Point 21.00°N, 170.32°W
Launch Date May 23, 2024
Age 2.3 years
Type internet

Technical Details

Classification Payload
Mass 730.00 kg
Dry Mass 700.00 kg
Length 0.30 m
Span 29.00 m
Shape ? Box + pan
Manufacturer SPXS
Bus Type Starlink V2M
Phase Status In Orbit
Owner/State SPXS/US

Most Searched